SCP
-0 -0 0 0 0 0 0 0 0 0 0 0 0 0 0 0 0 0 0 0 0 0 0 0 0 -0 -0 0 0 0 0 0 0 0 0 0 0 0 0 0 0 0 0
-0 -0 0 0 0 0 0 0 0 0 0 0 0 0 0 0 0 0 0 0 0 0 0 0 0 0 0 0 0 0 0 0 0 0 0 0 0 0 0 0 0 0 0
-0 -0 0 0 0 0 0 0 0 0 0 0 0 0 0 0 0 0 0 0 0 0 0 0 0 0 0 0 0 0 0 0 0 0 0 0 0 0 0 0 0 0 0
-0 -0 0 0 0 0 0 0 0 0 0 0 0 0 0 0 0 0 0 0 0 0 -0 0 0 0 0 0 0 0 0 0 0 0 0 0 0 0 0 0 0 0 0
-0 -0 0 0 0 0 0 0 0 0 0 0 0 0 0 0 0 0 0 0 0 0 0 0 0 0 0 0 0 0 0 0 0 0 0 0 0 0 0 0 0 0 0
-0 -0 0 0 0 0 0 0 0 0 0 0 0 0 0 0 0 0 0 0 0 0 0 0 0 0 0 0 0 0 0 0 0 0 0 0 0 0 0 0 0 0 0
0 0 0 -0 0 0 0 0 0 0 0 0 0 0 0 0 0 0 0 0 0 0 0 0 0 0 0 0 0 0 0 0 0 0 0 0 0 0 0 0 0 0 0
0 0 0 -0 -0 -0 0 0 0 0 0 0 0 0 0 0 0 0 0 0 0 0 0 0 0 0 0 0 0 0 0 0 0 0 0 0 0 0 0 0 0 0 0
0 0 0 -0 -0 -0 0 0 0 0 0 0 0 0 0 0 0 -0 0 0 0 0 0 0 0 0 0 0 0 0 0 0 0 0 0 0 0 0 0 0 0 0 0
0 0 0 0 0 0 0 0 0 0 0 0 0 0 0 0 -0 0 0 0 0 0 0 0 0 0 0 0 0 0 0 0 0 0 0 0 0 0 0 0 0 0 0
0 0 0 0 0 0 0 0 0 0 0 0 0 0 0 0 -0 -0 0 0 0 0 0 0 0 0 0 0 0 0 0 0 0 0 0 0 0 0 0 0 0 0 0
0 0 0 0 0 0 0 0 0 0 0 0 0 0 0 0 0 0 0 0 0 0 0 0 0 0 0 0 0 0 0 0 0 0 0 0 0 0 0 0 0 0 -0
0 0 0 0 0 0 0 0 0 0 0 0 0 0 0 0 0 0 0 0 0 0 0 0 0 0 0 0 0 0 0 0 0 0 0 0 0 0 0 0 0 0 0
0 0 0 0 0 0 0 0 0 0 0 0 0 0 0 0 0 0 0 0 0 0 0 0 0 0 0 0 0 0 0 0 0 0 0 0 0 0 0 0 0 0 0
0 0 0 0 0 0 0 0 0 0 0 0 0 0 0 0 0 0 0 0 0 0 0 0 0 0 0 0 0 0 0 0 0 0 0 0 0 0 0 0 0 0 0
0 0 0 0 0 0 0 0 0 0 0 0 0 0 0 0 0 0 0 0 0 0 0 0 0 0 0 0 0 0 0 0 0 0 0 0 0 0 0 0 0 0 0
0 0 0 0 0 -0 0 0 0 0 0 0 0 0 0 0 0 0 0 0 0 0 0 0 0 0 0 0 0 0 0 0 0 0 0 0 0 0 0 0 0 0 0
0 0 0 0 -0 -0 -0 0 0 0 0 0 0 0 0 0 0 0 0 0 0 0 0 0 0 0 0 0 0 0 0 0 0 0 0 0 0 0 0 0 0 0 0
0 0 0 0 -0 -0 -0 0 0 0 0 0 0 0 0 0 0 0 -0 0 0 0 0 0 0 0 0 0 0 0 0 0 0 0 0 0 0 0 0 0 0 0 0
0 0 0 -0 -0 -0 -0 0 0 0 0 0 0 0 0 0 0 0 -0 0 0 0 0 0 0 0 0 0 0 0 0 0 0 0 0 -0 0 0 0 0 0 0 0
0 0 -0 -0 -0 0 0 0 0 0 0 0 0 0 0 0 0 -0 -0 0 0 0 0 0 0 0 0 0 0 0 0 0 0 0 0 -0 0 0 0 0 0 0 0
0 0 -0 0 0 0 0 0 0 0 0 0 0 0 -0 -0 -0 -0 -0 0 0 0 0 0 0 0 0 0 0 0 0 0 0 0 0 0 0 0 0 0 0 0 0
0 0 0 0 0 0 0 0 0 0 0 0 0 0 0 -0 -0 -0 0 0 0 0 -0 -0 -0 -0 -0 0 0 0 0 0 0 0 0 0 0 0 0 0 0 0 0
0 0 0 0 0 0 0 0 0 0 0 0 0 0 0 0 0 0 0 0 0 -0 -0 -0 -0 -0 -0 0 0 0 0 0 0 0 0 0 0 0 0 0 0 0 0
0 0 0 0 0 -0 -0 -0 -0 -0 -0 0 0 0 0 0 0 0 0 0 -0 -0 -0 -0 -0 -0 -0 -0 -0 -0 0 0 0 0 0 0 0 0 0 0 0 0 0
0 0 0 0 0 0 0 0 0 0 0 0 0 0 0 0 0 0 0 0 -0 -0 -0 -0 -0 -0 -0 -0 -0 -0 -0 0 0 0 0 0 0 0 0 0 0 0 0
Wind_Speed
3 3 5 5 6 5 4 4 5 3 3 2 2 2 1 1 1 1 2 2 2 2 2 2 3 3 2 2 2 2 3 3 2 2 3 3 3 3 3 3 3 3 4
3 3 4 5 6 5 4 4 5 4 3 2 2 2 1 1 0 1 2 3 2 2 2 2 2 2 2 3 3 2 2 2 3 2 2 3 5 4 4 3 3 4 3
7 5 5 5 5 5 5 5 5 4 3 3 3 3 3 2 2 2 2 2 2 2 2 2 2 2 2 2 2 2 2 1 2 2 2 2 1 3 3 3 3 4 3
5 6 6 5 5 5 4 4 4 4 3 4 3 3 2 1 1 1 1 2 2 2 2 2 2 2 2 2 2 2 1 1 1 2 2 1 2 1 2 3 3 4 3
6 7 7 6 5 5 4 4 4 3 3 3 4 3 2 1 0 0 1 2 2 2 2 2 2 2 1 2 2 2 2 1 1 1 1 1 1 1 1 2 4 4 3
6 6 5 5 4 4 4 4 4 3 3 3 3 3 3 2 2 1 1 1 1 2 2 1 1 1 1 1 1 1 2 1 1 1 1 1 1 0 1 1 2 3 3
6 6 6 5 5 5 4 4 4 3 3 3 3 2 3 3 3 2 1 0 1 1 2 1 1 1 1 1 1 1 2 1 1 1 0 0 1 1 1 1 1 2 3
6 7 7 6 6 5 5 4 4 3 3 3 2 2 2 2 1 1 1 1 1 2 2 1 1 1 1 1 1 1 1 1 1 1 1 0 0 0 1 1 1 1 2
6 6 6 6 6 5 5 5 5 3 3 2 2 2 2 2 1 1 1 0 1 1 1 0 1 1 1 1 1 1 2 2 2 2 1 1 1 0 0 1 2 1 1
6 6 5 6 5 5 4 4 4 4 3 2 2 2 1 1 1 1 1 1 1 1 1 1 1 1 2 1 1 1 1 2 2 1 1 2 1 1 0 0 1 1 2
7 6 5 5 5 4 4 4 4 4 3 2 2 2 2 1 2 1 1 1 1 1 1 1 1 2 2 2 1 1 2 2 2 2 2 2 1 1 1 0 0 1 1
7 6 6 6 5 5 4 4 4 4 3 3 3 3 2 2 2 2 1 1 2 1 1 2 2 2 2 2 2 2 2 2 2 2 2 2 2 2 1 1 1 1 1
7 6 6 6 5 5 4 4 4 4 4 4 4 3 3 3 3 2 2 2 2 2 2 2 2 2 2 2 2 1 2 2 1 2 2 2 2 2 2 1 1 1 1
8 7 6 5 5 5 5 4 4 4 4 4 4 4 2 2 2 2 3 3 3 3 3 2 2 2 2 2 2 2 2 2 2 2 1 2 1 1 2 1 1 1 1
8 8 7 6 5 5 4 4 4 4 4 5 4 3 2 2 3 4 3 3 3 3 2 3 3 3 2 2 2 2 2 2 3 3 3 2 3 3 2 1 1 1 1
9 8 8 8 7 6 6 5 4 4 5 5 4 3 3 3 3 3 3 4 3 3 3 3 3 3 3 5 4 3 2 2 2 3 3 3 3 5 6 5 4 2 1
9 9 9 8 7 7 7 7 5 5 5 4 3 3 3 3 2 3 3 3 2 3 3 3 3 2 3 5 5 4 2 1 1 2 2 3 4 4 3 5 6 4 4
9 9 8 7 6 6 6 6 6 5 5 4 3 3 3 3 2 3 2 2 2 2 2 2 2 2 4 6 5 4 2 1 2 2 2 2 4 4 3 3 4 4 4
8 8 7 7 7 7 7 7 6 5 5 4 3 3 3 3 3 2 1 1 1 1 1 1 1 2 4 6 5 4 1 2 3 3 3 3 3 7 6 2 4 5 5
7 8 7 7 8 7 7 8 6 6 5 4 4 3 3 4 3 2 1 1 1 0 0 1 1 1 3 5 6 4 1 2 3 3 4 5 6 8 7 3 3 5 6
8 9 9 7 7 7 8 8 6 5 5 4 4 3 3 3 3 2 1 1 1 1 1 1 2 2 3 5 6 5 1 2 3 3 3 4 8 9 9 6 4 7 7
8 9 9 7 5 7 8 7 6 4 4 4 4 3 2 2 3 3 1 1 1 1 1 2 3 3 3 4 6 7 5 4 2 4 4 5 9 10 9 6 7 10 7
8 7 8 7 5 5 7 8 5 5 5 5 3 2 2 2 2 3 2 1 1 1 1 1 2 3 3 4 7 8 8 8 4 4 8 9 10 9 7 8 10 7 3
8 7 8 8 6 5 5 5 5 5 6 5 3 2 2 2 1 1 2 2 1 1 1 1 2 3 3 4 3 4 5 6 5 5 7 9 8 5 6 7 5 4 4
6 7 8 8 7 5 4 4 5 6 5 4 3 2 2 2 1 1 2 2 3 3 3 3 3 3 4 6 7 5 4 4 5 5 3 3 3 3 4 4 4 4 4
7 7 6 7 6 6 5 4 5 6 6 4 3 2 2 1 1 1 1 3 3 4 5 5 4 4 7 9 10 10 10 10 8 4 3 4 4 4 5 5 5 4 4
Wind_Direction
209 157 153 145 134 135 140 142 138 139 129 111 105 97 71 21 18 11 22 32 35 41 53 46 32 31 39 27 23 35 32 15 1 34 12 357 6 18 16 7 13 12 5
162 154 148 147 148 151 152 151 154 153 150 136 126 127 125 95 36 357 18 27 27 25 48 53 36 27 33 28 26 36 36 14 21 59 53 6 353 354 3 6 16 10 5
176 170 165 162 154 161 170 168 164 158 149 131 104 84 62 40 26 12 6 3 18 28 43 50 46 34 42 27 18 34 63 33 11 44 100 96 335 322 337 358 10 5 6
173 170 169 169 170 176 168 158 155 154 147 137 136 136 133 149 231 273 326 355 18 22 29 43 47 46 42 28 5 41 55 76 22 9 41 113 162 92 337 336 349 358 3
173 171 173 173 171 161 157 157 150 147 141 139 145 137 135 154 142 43 26 10 1 7 22 35 40 39 31 26 25 29 39 65 83 32 22 51 56 83 120 324 332 343 340
165 160 154 146 147 144 144 146 144 143 136 137 140 146 151 148 129 94 30 355 339 342 359 20 28 22 15 13 18 29 37 37 55 52 73 99 92 98 132 240 310 324 316
157 153 153 153 154 155 154 151 149 149 145 141 142 153 162 162 169 176 192 272 327 322 320 348 356 354 346 360 24 36 25 21 33 22 18 151 191 173 163 156 293 325 317
159 162 167 162 161 162 156 153 156 155 151 147 150 148 158 157 172 180 184 207 238 261 281 303 323 342 355 15 35 37 13 20 15 8 5 352 296 177 171 167 147 356 337
167 166 161 158 160 161 162 162 157 147 148 145 140 139 144 139 138 134 126 188 266 272 310 344 1 359 13 22 41 36 10 17 14 5 8 3 331 343 215 180 169 154 330
164 161 158 158 159 159 150 143 148 153 149 140 142 130 130 130 131 113 85 39 347 8 36 33 28 17 20 26 44 13 3 24 360 356 17 8 342 347 354 179 180 169 176
165 162 157 149 140 131 129 131 132 125 119 123 115 103 89 85 93 89 70 59 38 46 58 53 52 38 25 24 41 15 15 23 2 3 15 351 343 356 352 4 159 184 174
155 150 144 135 132 132 131 132 130 125 126 120 108 101 91 82 74 61 45 57 57 46 51 59 59 44 36 29 33 16 20 30 6 354 11 350 1 4 350 357 332 252 212
141 137 137 141 143 139 137 134 132 130 120 112 103 92 82 78 69 55 50 57 66 56 48 59 58 46 37 32 25 31 30 31 12 3 12 345 10 356 343 351 341 313 309
151 149 149 149 146 143 143 139 134 129 124 114 105 95 87 88 80 65 60 62 71 69 55 52 49 47 44 37 29 38 37 24 11 6 4 346 346 310 314 333 320 326 336
156 159 159 156 150 142 138 135 134 130 127 116 107 106 99 87 78 69 62 60 63 65 62 56 39 32 41 40 41 41 41 30 15 6 359 353 358 353 341 335 306 311 309
167 164 160 157 158 155 149 141 137 134 125 120 118 108 99 87 81 77 70 64 56 50 57 53 43 31 26 30 43 59 44 31 19 356 345 344 360 357 355 349 342 325 267
169 167 167 166 163 160 154 151 147 132 124 123 117 111 109 100 91 86 75 67 57 55 53 42 41 22 358 19 33 43 64 31 357 338 335 344 355 355 340 338 342 331 314
169 169 165 160 154 148 144 139 133 133 132 127 125 125 119 111 100 91 82 65 61 61 50 30 23 12 355 12 22 29 43 8 328 309 298 304 314 323 334 329 328 313 301
167 165 161 152 146 147 146 136 135 136 135 142 149 152 143 131 119 110 104 90 76 49 27 13 14 359 333 354 6 25 18 342 318 307 302 297 292 313 331 325 309 307 302
147 145 141 134 142 150 144 138 144 145 158 169 167 159 152 146 147 156 149 124 121 119 23 4 343 325 315 338 353 7 6 325 312 312 307 306 307 314 321 297 285 293 292
143 142 141 145 153 151 144 142 148 167 175 159 147 142 148 152 152 142 129 118 97 64 20 349 330 325 319 328 339 345 330 283 290 296 298 294 307 310 311 303 269 278 293
139 143 143 144 145 150 147 147 165 176 150 139 137 138 140 146 135 133 124 111 109 86 350 339 328 321 319 322 322 327 320 310 273 274 277 285 301 305 306 300 292 297 305
143 143 141 138 143 155 153 154 171 155 142 134 138 143 136 134 139 144 145 130 128 142 275 297 303 307 310 311 318 322 319 311 291 276 287 295 302 305 302 297 301 304 294
147 144 139 141 151 157 156 159 158 150 139 140 148 147 140 137 135 147 160 162 185 211 245 265 278 291 301 300 303 307 308 306 298 292 297 301 301 294 290 299 299 285 271
148 149 151 154 159 156 152 151 149 144 141 146 153 154 155 160 164 186 205 202 217 210 216 232 239 261 284 287 299 306 300 294 288 298 296 296 300 300 296 291 285 279 280
146 147 149 150 154 153 153 154 152 149 146 148 160 167 169 175 179 210 300 280 254 268 262 255 254 257 267 291 303 307 304 304 303 300 280 278 277 278 283 287 289 284 277